Simultaneous Nadir Overpasses (SNOs) Predictions

Prediction of SNOs between FY3D and AQUA Satellite Orbit:

Table of predicted SNOs for the next 14.0 days since TLE Epoch: 8/3/2024
Index Date (FY3D) Time (FY3D) Lat,Lon (FY3D) SZA (FY3D ) Date (AQUA) Time (AQUA) Lat,Lon (AQUA) SZA (AQUA ) Distance(km) Time Diff (sec)
1 08/03/2024 06:30:42 79.55, 63.40 62.85 08/03/2024 06:31:34 79.55, 63.44 62.83 0.95 52
2 08/03/2024 07:21:20 -79.35,-127.53 117.45 08/03/2024 07:20:50 -79.35,-127.48 117.45 1.04 30
3 08/05/2024 18:34:15 -79.51, 62.94 116.55 08/05/2024 18:34:46 -79.51, 62.98 116.57 0.77 31
4 08/05/2024 19:24:52 79.21,-127.27 63.03 08/05/2024 19:24:00 79.22,-127.36 63.05 1.97 52
5 08/08/2024 06:37:50 79.48, 62.34 64.10 08/08/2024 06:37:57 79.48, 62.44 64.09 2.28 7
6 08/08/2024 07:27:59 -78.24,-121.55 117.56 08/08/2024 07:26:45 -78.13,-121.99 117.64 15.41 74
7 08/10/2024 17:50:42 79.56,-106.51 64.93 08/10/2024 17:51:48 79.56,-106.58 64.92 1.48 66
8 08/10/2024 18:41:20 -79.36, 62.59 115.37 08/10/2024 18:41:04 -79.36, 62.53 115.36 1.34 16
9 08/13/2024 05:54:14 -79.53,-107.11 114.37 08/13/2024 05:54:55 -79.54,-107.13 114.38 0.50 41
10 08/13/2024 06:44:54 79.34, 61.85 65.36 08/13/2024 06:44:11 79.33, 61.98 65.35 2.78 43
11 08/15/2024 17:57:48 79.50,-107.64 66.35 08/15/2024 17:58:01 79.49,-107.55 66.33 1.98 13



Historial Predications of SNOs between FY3D and AQUA
